Time,TemperatureF,DewpointF,PressureIn,WindDirection,WindDirectionDegrees,WindSpeedMPH,WindSpeedGustMPH,Humidity,HourlyPrecipIn,Conditions,Clouds,dailyrainin,SolarRadiationWatts/m^2,SoftwareType,DateUTC
2013-01-26 00:11:00,13.8,-6.6,30.03,WNW,284,3.0,3.0,39,0.00,,OVC055,0.00,0.00,VWS V14.01,2013-01-26 05:11:00,
2013-01-26 00:21:00,13.8,-7.7,30.03,WNW,284,3.0,3.0,37,0.00,,OVC055,0.00,0.00,VWS V14.01,2013-01-26 05:21:00,
2013-01-26 00:31:00,13.8,-6.6,30.02,WNW,284,3.0,3.0,39,0.00,,OVC055,0.00,0.00,VWS V14.01,2013-01-26 05:31:00,
2013-01-26 00:41:00,13.6,-7.8,30.02,WNW,284,3.0,3.0,37,0.00,,OVC050,0.00,0.00,VWS V14.01,2013-01-26 05:41:00,
2013-01-26 00:51:00,13.6,-6.2,30.02,WNW,284,3.0,3.0,40,0.00,,OVC050,0.00,0.00,VWS V14.01,2013-01-26 05:51:00,
2013-01-26 01:01:00,13.5,-5.3,30.02,WNW,284,3.0,3.0,42,0.00,,OVC050,0.00,0.00,VWS V14.01,2013-01-26 06:01:00,
2013-01-26 01:11:00,13.3,-4.1,30.02,WNW,284,3.0,3.0,45,0.00,,OVC050,0.00,0.00,VWS V14.01,2013-01-26 06:11:00,
2013-01-26 01:21:00,13.1,-2.9,30.02,WNW,284,3.0,3.0,48,0.00,,OVC050,0.00,0.00,VWS V14.01,2013-01-26 06:21:00,
2013-01-26 01:31:00,12.9,-3.5,30.02,WNW,284,3.0,3.0,47,0.00,,OVC050,0.00,0.00,VWS V14.01,2013-01-26 06:31:00,
2013-01-26 01:41:00,12.9,-2.7,30.02,WNW,284,3.0,3.0,49,0.00,,OVC050,0.00,0.00,VWS V14.01,2013-01-26 06:41:00,
2013-01-26 01:51:00,12.8,-2.7,30.02,WNW,284,3.0,3.0,49,0.00,,OVC050,0.00,0.00,VWS V14.01,2013-01-26 06:51:00,
2013-01-26 02:01:00,12.8,-1.9,30.01,WNW,284,3.0,3.0,51,0.00,,OVC050,0.00,0.00,VWS V14.01,2013-01-26 07:01:00,
2013-01-26 02:11:00,12.4,-1.9,30.01,WNW,284,3.0,3.0,52,0.00,,OVC055,0.00,0.00,VWS V14.01,2013-01-26 07:11:00,
2013-01-26 02:21:00,12.3,-1.6,30.01,WNW,284,3.0,3.0,53,0.00,,OVC055,0.00,0.00,VWS V14.01,2013-01-26 07:21:00,
2013-01-26 02:31:00,12.1,-1.0,30.01,WNW,284,3.0,3.0,55,0.00,,OVC055,0.00,0.00,VWS V14.01,2013-01-26 07:31:00,
2013-01-26 02:41:00,11.7,-0.6,30.01,WNW,284,3.0,3.0,57,0.00,,OVC055,0.00,0.00,VWS V14.01,2013-01-26 07:41:00,
2013-01-26 02:51:00,11.7,-0.2,30.00,WNW,284,3.0,3.0,58,0.00,,OVC055,0.00,0.00,VWS V14.01,2013-01-26 07:51:00,
2013-01-26 03:01:00,11.6,0.1,30.00,WNW,284,3.0,3.0,59,0.00,,OVC055,0.00,0.00,VWS V14.01,2013-01-26 08:01:00,
2013-01-26 03:11:00,11.7,-0.2,30.00,WNW,284,3.0,3.0,58,0.00,,OVC044,0.00,0.00,VWS V14.01,2013-01-26 08:11:00,
2013-01-26 03:21:00,11.7,-0.2,30.00,WNW,284,3.0,3.0,58,0.00,,OVC044,0.00,0.00,VWS V14.01,2013-01-26 08:21:00,
2013-01-26 03:31:00,11.4,-0.1,29.99,WNW,284,3.0,3.0,59,0.00,,OVC044,0.00,0.00,VWS V14.01,2013-01-26 08:31:00,
2013-01-26 03:41:00,11.2,0.0,29.99,WNW,284,3.0,3.0,60,0.00,,FEW050,0.00,0.00,VWS V14.01,2013-01-26 08:41:00,
2013-01-26 03:51:00,10.9,0.1,29.99,WNW,284,3.0,3.0,61,0.00,,FEW050,0.00,0.00,VWS V14.01,2013-01-26 08:51:00,
2013-01-26 04:01:00,10.7,-0.1,29.99,WNW,284,3.0,3.0,61,0.00,,FEW050,0.00,0.00,VWS V14.01,2013-01-26 09:01:00,
2013-01-26 04:11:00,10.2,0.1,29.99,WNW,284,3.0,3.0,63,0.00,,CLR,0.00,0.00,VWS V14.01,2013-01-26 09:11:00,
2013-01-26 04:21:00,9.7,0.0,29.99,WNW,284,3.0,3.0,64,0.00,,CLR,0.00,0.00,VWS V14.01,2013-01-26 09:21:00,
2013-01-26 04:31:00,9.5,-0.2,29.99,WNW,284,3.0,3.0,64,0.00,,CLR,0.00,0.00,VWS V14.01,2013-01-26 09:31:00,
2013-01-26 04:41:00,9.0,-0.4,29.99,WNW,284,3.0,3.0,65,0.00,,CLR,0.00,0.00,VWS V14.01,2013-01-26 09:41:00,
2013-01-26 04:51:00,8.3,-0.4,29.99,WNW,284,3.0,3.0,67,0.00,,CLR,0.00,0.00,VWS V14.01,2013-01-26 09:51:00,
2013-01-26 05:01:00,8.8,-0.2,29.99,WNW,284,3.0,3.0,66,0.00,,CLR,0.00,0.00,VWS V14.01,2013-01-26 10:01:00,
2013-01-26 05:11:00,9.0,-1.0,29.99,WNW,284,3.0,3.0,63,0.00,,CLR,0.00,0.00,VWS V14.01,2013-01-26 10:11:00,
2013-01-26 05:21:00,8.8,-1.9,29.99,WNW,284,3.0,3.0,61,0.00,,CLR,0.00,0.00,VWS V14.01,2013-01-26 10:21:00,
2013-01-26 05:31:00,8.6,-1.7,29.99,WNW,284,3.0,3.0,62,0.00,,CLR,0.00,0.00,VWS V14.01,2013-01-26 10:31:00,
2013-01-26 05:41:00,8.6,-2.4,29.99,WNW,284,3.0,3.0,60,0.00,,CLR,0.00,0.00,VWS V14.01,2013-01-26 10:41:00,
2013-01-26 05:51:00,8.8,-2.6,30.00,WNW,284,3.0,3.0,59,0.00,,CLR,0.00,0.00,VWS V14.01,2013-01-26 10:51:00,
2013-01-26 06:01:00,8.4,-2.6,30.00,WNW,284,3.0,3.0,60,0.00,,CLR,0.00,0.00,VWS V14.01,2013-01-26 11:01:00,
2013-01-26 06:11:00,7.9,-2.7,30.00,WNW,284,3.0,3.0,61,0.00,,CLR,0.00,0.00,VWS V14.01,2013-01-26 11:11:00,
2013-01-26 06:21:00,8.4,-3.3,30.00,WNW,284,3.0,3.0,58,0.00,,CLR,0.00,0.00,VWS V14.01,2013-01-26 11:21:00,
2013-01-26 06:31:00,8.6,-3.5,30.01,WNW,284,3.0,3.0,57,0.00,,CLR,0.00,0.00,VWS V14.01,2013-01-26 11:31:00,
2013-01-26 06:41:00,9.0,-3.5,30.01,WNW,284,3.0,3.0,56,0.00,,CLR,0.00,0.00,VWS V14.01,2013-01-26 11:41:00,
2013-01-26 06:51:00,8.8,-4.1,30.02,WNW,284,3.0,3.0,55,0.00,,CLR,0.00,0.00,VWS V14.01,2013-01-26 11:51:00,
2013-01-26 07:11:00,7.9,-3.8,30.02,North,0,0.0,0.0,58,0.00,,CLR,0.00,0.00,VWS V14.01,2013-01-26 12:11:00,
2013-01-26 07:21:00,7.4,-3.6,30.04,North,0,0.0,0.0,60,0.00,,CLR,0.00,7.00,VWS V14.01,2013-01-26 12:21:00,
2013-01-26 07:31:00,7.2,-3.8,30.04,North,0,0.0,0.0,60,0.00,,CLR,0.00,11.00,VWS V14.01,2013-01-26 12:31:00,
2013-01-26 07:41:00,7.9,-3.4,30.04,North,0,0.0,0.0,59,0.00,,CLR,0.00,14.00,VWS V14.01,2013-01-26 12:41:00,
2013-01-26 07:51:00,8.6,-3.1,30.04,North,0,0.0,0.0,58,0.00,,CLR,0.00,16.00,VWS V14.01,2013-01-26 12:51:00,
2013-01-26 08:01:00,8.8,-3.3,30.04,North,0,0.0,0.0,57,0.00,,CLR,0.00,19.00,VWS V14.01,2013-01-26 13:01:00,
2013-01-26 08:11:00,9.2,-3.3,30.04,NW,316,3.0,11.0,56,0.00,,CLR,0.00,21.00,VWS V14.01,2013-01-26 13:11:00,
2013-01-26 08:21:00,9.5,-3.4,30.05,NW,324,3.0,13.0,55,0.00,,CLR,0.00,25.00,VWS V14.01,2013-01-26 13:21:00,
2013-01-26 08:31:00,9.9,-3.4,30.05,WNW,283,11.0,14.0,54,0.00,,CLR,0.00,26.00,VWS V14.01,2013-01-26 13:31:00,
2013-01-26 08:41:00,10.0,-4.1,30.05,NNW,328,1.0,11.0,52,0.00,,CLR,0.00,33.00,VWS V14.01,2013-01-26 13:41:00,
2013-01-26 08:51:00,10.2,-3.9,30.05,NNE,13,10.0,13.0,52,0.00,,CLR,0.00,46.00,VWS V14.01,2013-01-26 13:51:00,
2013-01-26 09:01:00,10.2,-3.9,30.05,NE,54,5.0,10.0,52,0.00,,CLR,0.00,40.00,VWS V14.01,2013-01-26 14:01:00,
2013-01-26 09:11:00,10.5,-3.6,30.05,WNW,287,3.0,12.0,52,0.00,,CLR,0.00,44.00,VWS V14.01,2013-01-26 14:11:00,
2013-01-26 09:21:00,10.9,-4.1,30.05,NW,319,7.0,14.0,50,0.00,,CLR,0.00,70.00,VWS V14.01,2013-01-26 14:21:00,
2013-01-26 09:31:00,11.2,-4.2,30.05,West,264,7.0,12.0,49,0.00,,CLR,0.00,102.00,VWS V14.01,2013-01-26 14:31:00,
2013-01-26 09:41:00,11.6,-4.7,30.05,NNW,344,5.0,16.0,47,0.00,,CLR,0.00,95.00,VWS V14.01,2013-01-26 14:41:00,
2013-01-26 09:51:00,12.3,-4.5,30.05,North,6,0.0,13.0,46,0.00,,CLR,0.00,77.00,VWS V14.01,2013-01-26 14:51:00,
2013-01-26 10:01:00,12.9,-5.4,30.05,NNW,330,13.0,17.0,43,0.00,,CLR,0.00,202.00,VWS V14.01,2013-01-26 15:01:00,
2013-01-26 10:11:00,13.6,-6.2,30.05,NNW,335,13.0,18.0,40,0.00,,CLR,0.00,276.00,VWS V14.01,2013-01-26 15:11:00,
2013-01-26 10:21:00,14.1,-7.4,30.05,WNW,300,10.0,18.0,37,0.00,,CLR,0.00,376.00,VWS V14.01,2013-01-26 15:21:00,
2013-01-26 10:31:00,14.3,-7.2,30.05,North,349,4.0,21.0,37,0.00,,CLR,0.00,429.00,VWS V14.01,2013-01-26 15:31:00,
2013-01-26 10:41:00,14.6,-6.9,30.05,North,9,10.0,16.0,37,0.00,,CLR,0.00,355.00,VWS V14.01,2013-01-26 15:41:00,
2013-01-26 10:51:00,14.4,-6.0,30.05,NW,316,3.0,21.0,39,0.00,,CLR,0.00,105.00,VWS V14.01,2013-01-26 15:51:00,
2013-01-26 11:01:00,14.6,-6.4,30.04,NNE,23,6.0,17.0,38,0.00,,CLR,0.00,105.00,VWS V14.01,2013-01-26 16:01:00,
2013-01-26 11:11:00,14.9,-4.5,30.04,NW,305,4.0,17.0,41,0.00,,CLR,0.00,90.00,VWS V14.01,2013-01-26 16:11:00,
2013-01-26 11:21:00,15.4,-4.6,30.04,NW,304,10.0,17.0,40,0.00,,CLR,0.00,285.00,VWS V14.01,2013-01-26 16:21:00,
2013-01-26 11:31:00,15.6,-6.0,30.03,North,349,3.0,17.0,37,0.00,,CLR,0.00,367.00,VWS V14.01,2013-01-26 16:31:00,
2013-01-26 11:41:00,16.1,-5.0,30.03,WNW,286,4.0,19.0,38,0.00,,CLR,0.00,269.00,VWS V14.01,2013-01-26 16:41:00,
2013-01-26 11:51:00,16.2,-6.6,30.02,WNW,283,2.0,18.0,35,0.00,,CLR,0.00,214.00,VWS V14.01,2013-01-26 16:51:00,
2013-01-26 12:01:00,16.9,-6.6,30.01,NNW,328,4.0,14.0,34,0.00,,CLR,0.00,176.00,VWS V14.01,2013-01-26 17:01:00,
2013-01-26 12:11:00,17.0,-9.1,30.01,NE,49,5.0,17.0,30,0.00,,CLR,0.00,197.00,VWS V14.01,2013-01-26 17:11:00,
2013-01-26 12:21:00,17.3,-8.8,30.01,NNE,15,4.0,14.0,30,0.00,,CLR,0.00,118.00,VWS V14.01,2013-01-26 17:21:00,
2013-01-26 12:31:00,17.0,-7.8,30.01,WNW,299,13.0,20.0,32,0.00,,CLR,0.00,276.00,VWS V14.01,2013-01-26 17:31:00,
2013-01-26 12:41:00,16.9,-6.6,30.01,West,268,13.0,18.0,34,0.00,,CLR,0.00,97.00,VWS V14.01,2013-01-26 17:41:00,
2013-01-26 12:51:00,16.7,-7.4,30.00,WNW,300,13.0,22.0,33,0.00,,CLR,0.00,241.00,VWS V14.01,2013-01-26 17:51:00,
2013-01-26 13:01:00,17.0,-5.9,30.00,NW,306,16.0,20.0,35,0.00,,CLR,0.00,244.00,VWS V14.01,2013-01-26 18:01:00,
2013-01-26 13:11:00,17.0,-6.5,30.00,WNW,293,10.0,20.0,34,0.00,,CLR,0.00,109.00,VWS V14.01,2013-01-26 18:11:00,
2013-01-26 13:21:00,17.0,-5.9,30.00,NNW,338,14.0,21.0,35,0.00,,CLR,0.00,91.00,VWS V14.01,2013-01-26 18:21:00,
2013-01-26 13:31:00,17.0,-5.9,30.01,NNE,15,9.0,19.0,35,0.00,,CLR,0.00,109.00,VWS V14.01,2013-01-26 18:31:00,
2013-01-26 13:41:00,16.7,-6.8,30.01,WSW,257,7.0,23.0,34,0.00,,CLR,0.00,74.00,VWS V14.01,2013-01-26 18:41:00,
2013-01-26 13:51:00,16.9,-5.4,30.02,NW,308,10.0,21.0,36,0.00,,CLR,0.00,160.00,VWS V14.01,2013-01-26 18:51:00,
2013-01-26 14:01:00,17.0,-4.8,30.02,WNW,302,18.0,21.0,37,0.00,,CLR,0.00,186.00,VWS V14.01,2013-01-26 19:01:00,
2013-01-26 14:11:00,16.9,-5.4,30.02,NNW,330,16.0,23.0,36,0.00,,CLR,0.00,163.00,VWS V14.01,2013-01-26 19:11:00,
2013-01-26 14:21:00,16.7,-5.0,30.03,WNW,289,13.0,24.0,37,0.00,,CLR,0.00,121.00,VWS V14.01,2013-01-26 19:21:00,
2013-01-26 14:31:00,16.5,-6.4,30.03,WNW,288,18.0,21.0,35,0.00,,CLR,0.00,77.00,VWS V14.01,2013-01-26 19:31:00,
2013-01-26 14:41:00,16.4,-6.4,30.03,West,276,12.0,24.0,35,0.00,,CLR,0.00,81.00,VWS V14.01,2013-01-26 19:41:00,
2013-01-26 14:51:00,16.5,-6.4,30.05,North,0,10.0,24.0,35,0.00,,CLR,0.00,83.00,VWS V14.01,2013-01-26 19:51:00,
2013-01-26 15:01:00,16.5,-7.0,30.05,West,278,10.0,15.0,34,0.00,,CLR,0.00,54.00,VWS V14.01,2013-01-26 20:01:00,
2013-01-26 15:11:00,16.2,-6.6,30.05,NNW,348,15.0,23.0,35,0.00,,CLR,0.00,58.00,VWS V14.01,2013-01-26 20:11:00,
2013-01-26 15:21:00,16.2,-6.6,30.06,WNW,295,12.0,16.0,35,0.00,,CLR,0.00,69.00,VWS V14.01,2013-01-26 20:21:00,
2013-01-26 15:31:00,16.2,-6.1,30.07,WNW,285,11.0,14.0,36,0.00,,CLR,0.00,54.00,VWS V14.01,2013-01-26 20:31:00,
2013-01-26 15:41:00,16.2,-6.6,30.07,WNW,286,17.0,20.0,35,0.00,,CLR,0.00,30.00,VWS V14.01,2013-01-26 20:41:00,
2013-01-26 15:51:00,15.9,-6.3,30.07,NW,311,4.0,20.0,36,0.00,,CLR,0.00,60.00,VWS V14.01,2013-01-26 20:51:00,
2013-01-26 16:01:00,15.7,-7.1,30.08,NW,319,11.0,20.0,35,0.00,,CLR,0.00,47.00,VWS V14.01,2013-01-26 21:01:00,
2013-01-26 16:11:00,15.6,-6.6,30.08,NW,308,10.0,19.0,36,0.00,,CLR,0.00,28.00,VWS V14.01,2013-01-26 21:11:00,
2013-01-26 16:21:00,15.4,-7.3,30.08,NW,304,6.0,16.0,35,0.00,,CLR,0.00,14.00,VWS V14.01,2013-01-26 21:21:00,
2013-01-26 16:31:00,15.2,-7.5,30.09,NNW,347,4.0,15.0,35,0.00,,CLR,0.00,14.00,VWS V14.01,2013-01-26 21:31:00,
2013-01-26 16:41:00,15.1,-8.2,30.09,NNW,330,7.0,17.0,34,0.00,,CLR,0.00,5.00,VWS V14.01,2013-01-26 21:41:00,
2013-01-26 16:51:00,14.8,-8.5,30.09,North,1,3.0,13.0,34,0.00,,CLR,0.00,0.00,VWS V14.01,2013-01-26 21:51:00,
2013-01-26 17:01:00,14.8,-7.9,30.10,NNW,336,14.0,20.0,35,0.00,,CLR,0.00,0.00,VWS V14.01,2013-01-26 22:01:00,
2013-01-26 17:11:00,14.4,-8.8,30.10,NW,304,10.0,21.0,34,0.00,,SCT110,0.00,0.00,VWS V14.01,2013-01-26 22:11:00,
2013-01-26 17:21:00,14.1,-10.3,30.11,WNW,300,8.0,19.0,32,0.00,,SCT110,0.00,0.00,VWS V14.01,2013-01-26 22:21:00,
2013-01-26 17:31:00,14.0,-10.4,30.12,NW,305,5.0,17.0,32,0.00,,SCT110,0.00,0.00,VWS V14.01,2013-01-26 22:31:00,
2013-01-26 17:41:00,13.6,-9.6,30.12,North,359,2.0,12.0,34,0.00,,CLR,0.00,0.00,VWS V14.01,2013-01-26 22:41:00,
2013-01-26 17:51:00,13.5,-8.5,30.13,NNW,348,2.0,7.0,36,0.00,,CLR,0.00,0.00,VWS V14.01,2013-01-26 22:51:00,
2013-01-26 18:01:00,13.1,-9.4,30.13,WNW,290,3.0,9.0,35,0.00,,CLR,0.00,0.00,VWS V14.01,2013-01-26 23:01:00,
2013-01-26 18:11:00,12.8,-9.7,30.13,NE,34,13.0,13.0,35,0.00,,CLR,0.00,0.00,VWS V14.01,2013-01-26 23:11:00,
2013-01-26 18:21:00,12.6,-9.3,30.13,NNW,337,0.0,15.0,36,0.00,,CLR,0.00,0.00,VWS V14.01,2013-01-26 23:21:00,
2013-01-26 18:31:00,12.3,-7.4,30.14,NW,316,15.0,15.0,40,0.00,,CLR,0.00,0.00,VWS V14.01,2013-01-26 23:31:00,
2013-01-26 18:41:00,12.1,-7.1,30.14,WNW,291,11.0,15.0,41,0.00,,CLR,0.00,0.00,VWS V14.01,2013-01-26 23:41:00,
2013-01-26 18:51:00,11.7,-6.5,30.14,NW,319,3.0,17.0,43,0.00,,CLR,0.00,0.00,VWS V14.01,2013-01-26 23:51:00,
2013-01-26 19:01:00,11.6,-5.6,30.15,WNW,283,5.0,15.0,45,0.00,,CLR,0.00,0.00,VWS V14.01,2013-01-27 00:01:00,
2013-01-26 19:11:00,11.4,-5.8,30.15,NW,322,1.0,15.0,45,0.00,,CLR,0.00,0.00,VWS V14.01,2013-01-27 00:11:00,
2013-01-26 19:21:00,11.2,-5.5,30.15,NW,309,9.0,12.0,46,0.00,,CLR,0.00,0.00,VWS V14.01,2013-01-27 00:21:00,
2013-01-26 19:31:00,11.1,-5.2,30.15,NNW,340,4.0,18.0,47,0.00,,CLR,0.00,0.00,VWS V14.01,2013-01-27 00:31:00,
2013-01-26 19:41:00,10.9,-4.9,30.15,NW,311,6.0,14.0,48,0.00,,CLR,0.00,0.00,VWS V14.01,2013-01-27 00:41:00,
2013-01-26 19:51:00,10.7,-4.7,30.15,WNW,288,5.0,11.0,49,0.00,,CLR,0.00,0.00,VWS V14.01,2013-01-27 00:51:00,
2013-01-26 20:01:00,10.5,-4.4,30.15,WNW,288,2.0,13.0,50,0.00,,CLR,0.00,0.00,VWS V14.01,2013-01-27 01:01:00,
2013-01-26 20:11:00,10.2,-4.3,30.15,WNW,285,2.0,15.0,51,0.00,,CLR,0.00,0.00,VWS V14.01,2013-01-27 01:11:00,
2013-01-26 20:21:00,10.0,-4.9,30.16,WSW,254,6.0,6.0,50,0.00,,CLR,0.00,0.00,VWS V14.01,2013-01-27 01:21:00,
2013-01-26 20:31:00,10.2,-3.9,30.15,NNW,346,3.0,11.0,52,0.00,,CLR,0.00,0.00,VWS V14.01,2013-01-27 01:31:00,
2013-01-26 20:41:00,10.2,-3.9,30.15,WNW,294,1.0,7.0,52,0.00,,CLR,0.00,0.00,VWS V14.01,2013-01-27 01:41:00,
2013-01-26 20:51:00,10.2,-3.5,30.15,WNW,285,11.0,11.0,53,0.00,,CLR,0.00,0.00,VWS V14.01,2013-01-27 01:51:00,
2013-01-26 21:01:00,10.2,-3.5,30.15,WNW,301,2.0,14.0,53,0.00,,CLR,0.00,0.00,VWS V14.01,2013-01-27 02:01:00,
2013-01-26 21:11:00,10.2,-3.1,30.15,WNW,283,10.0,13.0,54,0.00,,CLR,0.00,0.00,VWS V14.01,2013-01-27 02:11:00,
2013-01-26 21:21:00,10.0,-2.9,30.15,NW,306,4.0,11.0,55,0.00,,CLR,0.00,0.00,VWS V14.01,2013-01-27 02:21:00,
2013-01-26 21:31:00,10.0,-2.9,30.16,North,359,4.0,9.0,55,0.00,,CLR,0.00,0.00,VWS V14.01,2013-01-27 02:31:00,
2013-01-26 21:41:00,10.0,-2.2,30.16,NNW,345,3.0,11.0,57,0.00,,CLR,0.00,0.00,VWS V14.01,2013-01-27 02:41:00,
2013-01-26 21:51:00,9.9,-2.3,30.16,WNW,285,5.0,20.0,57,0.00,,CLR,0.00,0.00,VWS V14.01,2013-01-27 02:51:00,
2013-01-26 22:01:00,9.9,-2.3,30.16,WSW,255,13.0,14.0,57,0.00,,CLR,0.00,0.00,VWS V14.01,2013-01-27 03:01:00,
2013-01-26 22:11:00,10.0,-1.8,30.16,NW,305,4.0,17.0,58,0.00,,CLR,0.00,0.00,VWS V14.01,2013-01-27 03:11:00,
2013-01-26 22:21:00,10.0,-1.5,30.16,WNW,290,12.0,14.0,59,0.00,,CLR,0.00,0.00,VWS V14.01,2013-01-27 03:21:00,
2013-01-26 22:31:00,10.4,-1.1,30.16,WNW,292,13.0,17.0,59,0.00,,CLR,0.00,0.00,VWS V14.01,2013-01-27 03:31:00,
2013-01-26 22:41:00,10.5,-1.0,30.16,NW,320,2.0,18.0,59,0.00,,FEW032,0.00,0.00,VWS V14.01,2013-01-27 03:41:00,
2013-01-26 22:51:00,10.7,-1.2,30.17,WNW,289,0.0,10.0,58,0.00,,FEW032,0.00,0.00,VWS V14.01,2013-01-27 03:51:00,
2013-01-26 23:01:00,10.7,-0.8,30.17,WNW,298,9.0,12.0,59,0.00,,FEW032,0.00,0.00,VWS V14.01,2013-01-27 04:01:00,
2013-01-26 23:11:00,10.7,-0.8,30.17,North,3,5.0,13.0,59,0.00,,SCT032,0.00,0.00,VWS V14.01,2013-01-27 04:11:00,
2013-01-26 23:21:00,10.7,-0.8,30.17,West,277,3.0,13.0,59,0.00,,SCT032,0.00,0.00,VWS V14.01,2013-01-27 04:21:00,
2013-01-26 23:31:00,10.9,-1.0,30.18,WNW,300,8.0,15.0,58,0.00,,SCT032,0.00,0.00,VWS V14.01,2013-01-27 04:31:00,
2013-01-26 23:41:00,10.7,-0.8,30.18,WNW,289,9.0,15.0,59,0.00,,FEW043,0.00,0.00,VWS V14.01,2013-01-27 04:41:00,
2013-01-26 23:51:00,10.7,-1.2,30.17,West,280,11.0,15.0,58,0.00,,FEW043,0.00,0.00,VWS V14.01,2013-01-27 04:51:00,